Wiley, CO

6:43 PM MDT on August 26, 2016 (GMT -0600)
Lamar Municipal

Weather History for KLAA - September, 2011

Change the Weather History Date:

Sunday, September 11, 2011

  Actual Average Record
Temperature  
Mean Temperature 67 °F 69 °F  
Max Temperature 91 °F 85 °F 100 °F (1927)
Min Temperature 42 °F 53 °F 38 °F (1944)
Degree Days  
Heating Degree Days 0 1  
Month to date heating degree days 10 10  
Since 1 July heating degree days 10 15  
Cooling Degree Days 2 5  
Month to date cooling degree days 50 67  
Year to date cooling degree days 1472 1056  
Growing Degree Days 18 (Base 50)    
Moisture  
Dew Point 39 °F    
Average Humidity 45    
Maximum Humidity 77    
Minimum Humidity 12    
Precipitation  
Precipitation 0.00 in 0.05 in 1.04 in (1982)
Month to date precipitation 0.22 0.55  
Year to date precipitation 12.92  
Snow  
Snow 0.00 in - - ()
Month to date snowfall 0.0  
Snow Depth 0.00 in    
Sea Level Pressure  
Sea Level Pressure 30.03 in    
Wind  
Wind Speed 6 mph (South)    
Max Wind Speed 18 mph    
Max Gust Speed 24 mph    
Visibility 10 miles    
Events      
T = Trace of Precipitation, MM = Missing Value Source: NWS Daily Summary

Daily Weather History Graph

Daily Weather History Graph

Search for Another Location

Airport or City:

Trip Planner

Search our weather history database for the weather conditions in past years. The results will help you decide how hot, cold, wet, or windy it might be!

Date:

Astronomy

Sep. 11, 2011 Rise Set
Actual Time 6:28 AM MDT 7:05 PM MDT
Civil Twilight 6:02 AM MDT 7:31 PM MDT
Nautical Twilight 5:30 AM MDT 8:03 PM MDT
Astronomical Twilight 4:58 AM MDT 8:35 PM MDT
Moon 6:28 PM MDT (9/11) 5:49 AM MDT (9/11)
Length of Visible Light 13h 29m
Length of Day
12h 36m
Full, 100% of the Moon is Illuminated
Sep 11
Full
Sep 12
Full
Sep 20
Last Quarter
Sep 27
New
Oct 3
First Quarter

Hourly Weather History & Observations

Time (MDT) Temp. Windchill Dew Point Humidity Pressure Visibility Wind Dir Wind Speed Gust Speed Precip Events Conditions
12:53 AM 53.1 °F - 42.1 °F 66% 30.08 in 10.0 mi Calm Calm - N/A   Clear
1:53 AM 52.0 °F - 42.1 °F 69% 30.09 in 8.0 mi Calm Calm - N/A   Clear
2:53 AM 51.1 °F - 42.1 °F 71% 30.07 in 8.0 mi Calm Calm - N/A   Clear
3:53 AM 46.0 °F 44.8 °F 37.9 °F 73% 30.08 in 8.0 mi SW 3.5 mph - N/A   Clear
4:53 AM 48.9 °F - 41.0 °F 74% 30.08 in 10.0 mi Calm Calm - N/A   Clear
5:53 AM 46.9 °F - 39.9 °F 77% 30.10 in 10.0 mi Calm Calm - N/A   Clear
6:53 AM 44.1 °F 42.5 °F 37.9 °F 79% 30.12 in 10.0 mi SW 3.5 mph - N/A   Clear
7:53 AM 54.0 °F - 41.0 °F 62% 30.14 in 10.0 mi Calm Calm - N/A   Clear
8:53 AM 66.9 °F - 41.0 °F 39% 30.11 in 10.0 mi Calm Calm - N/A   Clear
9:53 AM 72.0 °F - 41.0 °F 33% 30.11 in 10.0 mi Calm Calm - N/A   Clear
10:53 AM 78.1 °F - 43.0 °F 29% 30.09 in 10.0 mi Calm Calm - N/A   Clear
11:53 AM 82.0 °F - 39.9 °F 22% 30.06 in 10.0 mi Variable 3.5 mph - N/A   Clear
12:53 PM 86.0 °F - 39.9 °F 20% 30.03 in 10.0 mi Variable 3.5 mph - N/A   Clear
1:53 PM 87.1 °F - 37.0 °F 17% 29.99 in 10.0 mi Variable 3.5 mph - N/A   Clear
2:53 PM 91.0 °F - 33.1 °F 13% 29.96 in 10.0 mi SSW 16.1 mph 21.9 mph N/A   Partly Cloudy
4:53 PM 89.1 °F - 30.9 °F 12% 29.93 in 10.0 mi SSW 9.2 mph 19.6 mph N/A   Clear
5:53 PM 88.0 °F - 30.9 °F 13% 29.93 in 10.0 mi South 11.5 mph - N/A   Clear
7:53 PM 77.0 °F - 34.0 °F 21% 29.94 in 10.0 mi SSE 11.5 mph - N/A   Clear
8:53 PM 73.9 °F - 36.0 °F 25% 29.94 in 10.0 mi SSE 13.8 mph - N/A   Clear
9:53 PM 75.0 °F - 41.0 °F 29% 29.92 in 10.0 mi SSE 17.3 mph - N/A   Clear
10:53 PM 72.0 °F - 42.1 °F 34% 29.92 in 10.0 mi SSE 16.1 mph - N/A   Clear
11:53 PM 70.0 °F - 43.0 °F 38% 29.91 in 10.0 mi South 12.7 mph 23.0 mph N/A   Clear